This is the latest recevied weather packets stored in our database for station/object KA3ZXO. If no packets are shown the sender has not sent any weather packets the latest 1 day(s).
| Time | Temp. | Humidity | Pressure | Rain* | Wind** | Luminosity | Snow |
|---|---|---|---|---|---|---|---|
| 1778034194 | 22.78° C | 51% | 1012.3 hPa | 0 mm | 0 m/s | 0 W/m² | - |
| 1778033589 | 22.78° C | 50% | 1012.3 hPa | 0 mm | 0 m/s | 0 W/m² | - |
| 1778032989 | 23.33° C | 49% | 1012.2 hPa | 0 mm | 0.45 m/s, 177° | 0 W/m² | - |
| 1778032384 | 23.33° C | 49% | 1011.9 hPa | 0 mm | 0.89 m/s, 187° | 0 W/m² | - |
| 1778031783 | 23.33° C | 48% | 1011.9 hPa | 0 mm | 0.45 m/s, 167° | 0 W/m² | - |
| 1778031183 | 23.33° C | 48% | 1011.9 hPa | 0 mm | 0.45 m/s, 187° | 0 W/m² | - |
| 1778030582 | 23.89° C | 47% | 1011.8 hPa | 0 mm | 0 m/s | 0 W/m² | - |
| 1778029981 | 23.89° C | 47% | 1011.6 hPa | 0 mm | 0 m/s | 0 W/m² | - |
| 1778029377 | 23.89° C | 45% | 1011.5 hPa | 0 mm | 0 m/s | 0 W/m² | - |
| 1778028776 | 23.89° C | 44% | 1011.2 hPa | 0 mm | 0.45 m/s, 189° | 0 W/m² | - |
| 1778028176 | 24.44° C | 43% | 1011.2 hPa | 0 mm | 0.45 m/s, 144° | 0 W/m² | - |
| 1778027574 | 24.44° C | 42% | 1011.2 hPa | 0 mm | 0 m/s | 0 W/m² | - |
| 1778026973 | 25° C | 42% | 1011.3 hPa | 0 mm | 0.45 m/s, 197° | 0 W/m² | - |
| 1778026372 | 25° C | 42% | 1011.1 hPa | 0 mm | 0 m/s | 0 W/m² | - |
| 1778025772 | 25.56° C | 41% | 1010.8 hPa | 0 mm | 0.89 m/s, 147° | 1 W/m² | - |
| 1778025172 | 25.56° C | 40% | 1010.9 hPa | 0 mm | 0 m/s | 3 W/m² | - |
| 1778024572 | 26.11° C | 39% | 1010.7 hPa | 0 mm | 0 m/s | 6 W/m² | - |
| 1778023967 | 26.11° C | 39% | 1010.6 hPa | 0 mm | 0 m/s | 13 W/m² | - |
| 1778023367 | 26.67° C | 38% | 1010.7 hPa | 0 mm | 0.45 m/s, 194° | 19 W/m² | - |
| 1778022762 | 26.67° C | 37% | 1010.8 hPa | 0 mm | 0 m/s | 26 W/m² | - |
| 1778022162 | 26.67° C | 37% | 1010.8 hPa | 0 mm | 0.45 m/s, 185° | 26 W/m² | - |
| 1778021562 | 26.67° C | 36% | 1010.6 hPa | 0 mm | 0.45 m/s, 138° | 37 W/m² | - |
| 1778020961 | 26.67° C | 36% | 1010.7 hPa | 0 mm | 0 m/s | 30 W/m² | - |
| 1778020360 | 27.22° C | 36% | 1010.6 hPa | 0 mm | 0 m/s | 34 W/m² | - |
| 1778019759 | 27.78° C | 35% | 1010.5 hPa | 0 mm | 0.45 m/s, 297° | 46 W/m² | - |
* Rain latest hour (hover to see other rain measurements)
** Current wind speed in m/s (hover to see current wind gust speed)